Hourly Data Report for October 30, 2013

All times are specified in Local Standard Time (LST). Add 1 hour to adjust for Daylight Saving Time where and when it is observed.

CHARLOTTETOWN A
PRINCE EDWARD ISLAND

46°17'21.000" N
63°07'09.000" W
48.50 m
8300301
71706
YYG

Download Data

Hourly Data (October 2013)
Hourly Data Report for October 30, 2013
Temp Definition
°C
Dew Point Temp Definition
°C
Rel Hum Definition
%
Wind Dir Definition
10's deg

Wind Spd Definition
km/h
Visibility Definition
km
Stn Press Definition
kPa
Hmdx Definition


Wind Chill Definition


Weather Definition


TIME
00:00 Legend Double Dagger -2.1 -5.4 78 28 4 24.1 102.10   -4 LegendNANA
01:00 Legend Double Dagger -2.0 -5.7 76 27 6 24.1 102.12   -4 LegendNANA
02:00 Legend Double Dagger -2.3 -5.3 80 27 4 24.1 102.03   -4 Mainly Clear
03:00 Legend Double Dagger -1.2 -5.3 74 25 7 24.1 101.96   -4 LegendNANA
04:00 Legend Double Dagger -1.7 -5.4 76 24 6 24.1 101.97   -4 LegendNANA
05:00 Legend Double Dagger -2.4 -5.6 79 23 8 24.1 101.93   -6 Mainly Clear
06:00 Legend Double Dagger -2.5 -5.0 83 25 10 24.1 101.93   -6 LegendNANA
07:00 Legend Double Dagger -2.5 -5.3 81 26 10 24.1 101.93   -6 LegendNANA
08:00 Legend Double Dagger -0.9 -4.6 76 27 10 40.2 101.91   -4 Mostly Cloudy
09:00 Legend Double Dagger 0.7 -4.2 70 24 13 24.1 101.91     LegendNANA
10:00 Legend Double Dagger 2.4 -2.7 69 25 10 24.1 101.84     LegendNANA
11:00 Legend Double Dagger 3.9 -1.9 66 21 18 24.1 101.77     Mostly Cloudy
12:00 Legend Double Dagger 3.6 -1.4 70 21 20 24.1 101.61     LegendNANA
13:00 Legend Double Dagger 5.1 -0.3 68 23 20 24.1 101.50     LegendNANA
14:00 Legend Double Dagger 5.3 -1.4 62 22 25 24.1 101.39     Mostly Cloudy
15:00 Legend Double Dagger 5.4 -1.7 60 23 17 24.1 101.32     LegendNANA
16:00 Legend Double Dagger 6.0 -2.9 53 25 18 24.1 101.33     LegendNANA
17:00 Legend Double Dagger 4.1 -3.9 56 27 11 24.1 101.34     Mainly Clear
18:00 Legend Double Dagger 2.4 -6.5 52 28 8 24.1 101.38     LegendNANA
19:00 Legend Double Dagger -0.2 -6.2 64 28 5 24.1 101.44   -2 LegendNANA
20:00 Legend Double Dagger 0.6 -6.7 58 30 13 24.1 101.41     Mainly Clear
21:00 Legend Double Dagger 0.7 -6.9 57 29 14 24.1 101.43     LegendNANA
22:00 Legend Double Dagger 0.4 -7.2 57 26 8 24.1 101.44     LegendNANA
23:00 Legend Double Dagger 0.3 -6.6 60 26 8 24.1 101.46     Mainly Clear

Notes on Data Quality.

Legend

  • E = Estimated
  • M = Missing
  • NA = Not Available
  • ‡ = Partner data that is not subject to review by the National Climate Archives
Date modified: